Flag for Austria Weather past 2 weeks in Knittelfeld, Styria, Austria

Now
72 °F

Scattered clouds.


Feels Like: 75 °F
Forecast: 54 / 84 °F
Wind: 5 mph from North

Location: Zeltweg

Current Time: Aug 3, 2015 at 3:11:15 PM

Latest Report: Aug 3, 2015 at 1:50 PM


Visibility: 15 mi

Pressure: 30.15 "Hg (27.99 "Hg at 641m altitude)

Humidity: 65%

Dew point: 59 °F

Location of KnittelfeldLocation

Historic Weather in Knittelfeld — Graph

°F

Knittelfeld temperature yesterday

Maximum temperature yesterday: 63 °F (at 6:50 PM)
Minimum temperature yesterday: 57 °F (at 9:50 PM)
Average temperature yesterday: 60 °F

Past Weeks' High & Low Weather Summary

 TemperatureHumidityPressure
High90 °F (Jul 19, 2:50 PM)100% (Jul 20, 5:50 AM)30.18 "Hg (Jul 20, 5:50 AM)
Low48 °F (Aug 1, 5:50 AM)31% (Jul 19, 2:50 PM)29.80 "Hg (Jul 27, 5:50 AM)
Average67 °F76%29.99 "Hg
* Reported Jul 19 1:20 PM — Aug 3 1:50 PM, Knittelfeld, Weather by CustomWeather, © 2015

Note: Actual official high and low records may vary slightly from our data, if they occured in-between our weather recording intervals... More about our weather records

Advertising

Knittelfeld weather history for previous 24 hours

 ConditionsComfort  
Time TempWeatherWind HumidityBarometerVisibility
1:50 PM
Mon, Aug 3
72 °FScattered clouds.5 mph65%30.15 "Hg16 mi
12:50 PM68 °FScattered clouds.3 mph73%30.15 "Hg16 mi
11:50 AM66 °FScattered clouds.3 mph73%30.18 "Hg16 mi
10:50 AM64 °FPartly sunny.2 mph78%30.18 "Hg12 mi
9:50 AM61 °FPartly sunny.2 mph83%30.18 "Hg12 mi
8:50 AM59 °FPartly sunny.1 mph88%30.18 "Hg12 mi
7:50 AM57 °FPartly sunny.1 mph88%30.18 "Hg12 mi
6:50 AM55 °FPartly sunny.3 mph94%30.18 "Hg12 mi
5:50 AM57 °FLow clouds.2 mph88%30.15 "Hg12 mi
4:50 AM57 °FLow clouds.2 mph94%30.18 "Hg9 mi
10:50 PM
Sun, Aug 2
59 °FPassing clouds.1 mph94%30.18 "Hg9 mi
9:50 PM57 °FPassing clouds.5 mph100%30.18 "Hg9 mi
8:50 PM59 °FPartly sunny.2 mph100%30.18 "Hg12 mi
7:50 PM61 °FBroken clouds.1 mph100%30.15 "Hg6 mi
6:50 PM63 °FBroken clouds.1 mph88%30.15 "Hg6 mi
5:50 PM61 °FMostly cloudy.5 mph88%30.18 "Hg5 mi
4:50 PM61 °FLight rain. Mostly cloudy.2 mph88%30.18 "Hg4 mi
3:50 PM61 °FLight rain. Mostly cloudy.2 mph88%30.15 "Hg4 mi
Weather by CustomWeather, © 2015

See weather overviewHow to use our weather pages